Zurück zum Katalog

STARLINK-37132

AktivKommunikationVLEO
NORAD 68233·PAYLOAD·🇺🇸 United States

Gestartet Mar 17, 2026 von Vandenberg Space Force Base

Loading…

Nächste Überflüge (nächste 24 Stunden)

TLE

AktuellSource: CelesTrak SupGP

Epoche: Sep 14, 2026, 15:45 UTC

1 68233C 26054B   26257.65673611  .00020677  00000+0  61003-3 0  2577
2 68233  53.1568 128.8730 0001333  81.7702  72.3151 15.34425344    11

Verfolge STARLINK-37132 in Echtzeit mit AllMySat

Download on the App Store